This is the latest recevied weather packets stored in our database for station/object E27IHO-13. If no packets are shown the sender has not sent any weather packets the latest 10 day(s).
| Time | Temp. | Humidity | Pressure | Rain* | Wind** | Luminosity | Snow |
|---|---|---|---|---|---|---|---|
| 1777959115 | 35° C | 52% | 1011 hPa | - | - | 0 W/m² | - |
| 1777958793 | 34.44° C | 54% | 1011 hPa | - | - | 0 W/m² | - |
| 1777958471 | 34.44° C | 51% | 1011 hPa | - | - | 0 W/m² | - |
| 1777958149 | 35° C | 51% | 1011 hPa | - | - | 0 W/m² | - |
| 1777957827 | 35° C | 50% | 1011 hPa | - | - | 0 W/m² | - |
| 1777957505 | 34.44° C | 52% | 1011 hPa | - | - | 0 W/m² | - |
| 1777957183 | 34.44° C | 52% | 1011 hPa | - | - | 0 W/m² | - |
| 1777956861 | 33.33° C | 56% | 1011 hPa | - | - | 0 W/m² | - |
| 1777956539 | 33.33° C | 56% | 1011 hPa | - | - | 0 W/m² | - |
| 1777956217 | 33.33° C | 55% | 1012 hPa | - | - | 0 W/m² | - |
| 1777955895 | 33.89° C | 54% | 1012 hPa | - | - | 0 W/m² | - |
| 1777955573 | 33.89° C | 54% | 1012 hPa | - | - | 0 W/m² | - |
| 1777955251 | 33.89° C | 52% | 1012 hPa | - | - | 0 W/m² | - |
| 1777915506 | 23.89° C | 99% | 1012 hPa | - | - | 0 W/m² | - |
| 1777915184 | 23.89° C | 99% | 1013 hPa | - | - | 0 W/m² | - |
| 1777914862 | 23.89° C | 99% | 1013 hPa | - | - | 0 W/m² | - |
| 1777907892 | 28.33° C | 76% | 1012 hPa | - | - | 0 W/m² | - |
| 1777907570 | 28.33° C | 76% | 1012 hPa | - | - | 0 W/m² | - |
| 1777907248 | 28.33° C | 76% | 1012 hPa | - | - | 0 W/m² | - |
| 1777906926 | 28.33° C | 75% | 1012 hPa | - | - | 0 W/m² | - |
| 1777906604 | 27.78° C | 75% | 1012 hPa | - | - | 0 W/m² | - |
| 1777906282 | 28.33° C | 75% | 1012 hPa | - | - | 0 W/m² | - |
| 1777905960 | 28.33° C | 75% | 1012 hPa | - | - | 0 W/m² | - |
| 1777905638 | 28.33° C | 74% | 1011 hPa | - | - | 0 W/m² | - |
| 1777905316 | 27.78° C | 75% | 1011 hPa | - | - | 0 W/m² | - |
* Rain since midnight (hover to see other rain measurements)
** Current wind speed in m/s (hover to see current wind gust speed)